Location: Bailleul
(50.3375°N, 2.8513°E)
Time: 16:40:39
(UTC+00:00)

USA 281 - Pass Details

Date: 19 April 2021
Orbit: 1078 x 1081 km, 106.0° (Epoch: 02 May)

Event Time Altitude Azimuth Distance (km) Brightness Sun altitude
Exits shadow 22:42:11 24° 93° (E) 2,071 4.5 -26.5°
Maximum altitude 22:45:15 36° 47° (NE) 1,636 4.3 -26.7°
Drops below altitude 10° 22:51:08 10° 344° (NNW) 2,931 6.5 -26.9°
Sets 22:53:50 0° 336° (NNW) 3,891 7.4 -27.0°
